Weather History for Fort Yukon, AK

Change the Weather History Date:

Saturday, June 15, 2013

  Actual Average Record
Temperature  
Mean Temperature 66 °F -  
Max Temperature 80 °F 66 °F 80 °F (1999)
Min Temperature 51 °F 48 °F 41 °F (2003)
Growing Degree Days 16 (Base 50)    
Moisture  
Dew Point 45 °F    
Average Humidity 44    
Maximum Humidity 72    
Minimum Humidity 19    
Precipitation  
Precipitation 0.00 in - - ()
Sea Level Pressure  
Sea Level Pressure 30.15 in    
Wind  
Wind Speed 3 mph (West)    
Max Wind Speed 15 mph    
Max Gust Speed 21 mph    
Visibility 10 miles    
Events      
Averages and records for this station are not official NWS values.
T = Trace of Precipitation, MM = Missing Value Source: NWS Daily Summary

Daily Weather History Graph

Daily Weather History Graph

Search for Another Location

Airport:

Trip Planner

Search our weather history database for the weather conditions in past years. The results will help you decide how hot, cold, wet, or windy it might be!

Date:

Astronomy

Jun. 15, 2013 Rise Set
Actual Time 2:14 AM AKDT 1:09 AM AKDT
Civil Twilight Sun does not rise Sun does not rise
Nautical Twilight Sun does not rise Sun does not rise
Astronomical Twilight Sun does not rise Sun does not rise
Moon 12:45 PM AKDT (6/15) 1:14 AM AKDT (6/15)
Length of Visible Light 24h 00m
Length of Day
22h 55m
Waxing Crescent, 41% of the Moon is Illuminated
Jun 15
Waxing Crescent
Jun 16
First Quarter
Jun 23
Full
Jun 29
Last Quarter
Jul 7
New

Hourly Weather History & Observations

Time (AKDT) Temp. Dew Point Humidity Pressure Visibility Wind Dir Wind Speed Gust Speed Precip Events Conditions
12:16 AM 60.8 °F 46.4 °F 59% 30.14 in 10.0 mi Calm Calm - N/A   Clear
12:36 AM 59.0 °F 46.4 °F 63% 30.14 in 10.0 mi Calm Calm - N/A   Clear
12:56 AM 59.0 °F 48.2 °F 67% 30.14 in 10.0 mi Calm Calm - N/A   Clear
1:16 AM 57.2 °F 46.4 °F 67% 30.14 in 10.0 mi Calm Calm - N/A   Clear
1:36 AM 55.4 °F 44.6 °F 67% 30.14 in 10.0 mi Calm Calm - N/A   Clear
1:56 AM 55.4 °F 44.6 °F 67% 30.14 in 10.0 mi Calm Calm - N/A   Clear
2:16 AM 55.4 °F 44.6 °F 67% 30.14 in 10.0 mi Calm Calm - N/A   Clear
2:36 AM 55.4 °F 44.6 °F 67% 30.14 in 10.0 mi Calm Calm - N/A   Clear
2:56 AM 55.4 °F 44.6 °F 67% 30.14 in 10.0 mi Calm Calm - N/A   Clear
3:16 AM 53.6 °F 44.6 °F 72% 30.14 in 10.0 mi Calm Calm - N/A   Clear
3:36 AM 53.6 °F 44.6 °F 72% 30.15 in 10.0 mi Calm Calm - N/A   Clear
3:56 AM 51.8 °F 42.8 °F 71% 30.15 in 10.0 mi Calm Calm - N/A   Clear
4:16 AM 53.6 °F 42.8 °F 67% 30.15 in 6.0 mi Calm Calm - N/A   Clear
4:36 AM 53.6 °F 44.6 °F 72% 30.14 in 7.0 mi Calm Calm - N/A   Clear
4:56 AM 55.4 °F 44.6 °F 67% 30.15 in 10.0 mi Calm Calm - N/A   Clear
5:16 AM 55.4 °F 46.4 °F 72% 30.15 in 10.0 mi Calm Calm - N/A   Clear
5:36 AM 57.2 °F 46.4 °F 67% 30.15 in 10.0 mi Calm Calm - N/A   Clear
5:56 AM 60.8 °F 44.6 °F 55% 30.15 in 10.0 mi SSW 3.5 mph - N/A   Clear
6:16 AM 60.8 °F 44.6 °F 55% 30.15 in 10.0 mi Calm Calm - N/A   Clear
6:36 AM 60.8 °F 44.6 °F 55% 30.15 in 10.0 mi Calm Calm - N/A   Clear
6:56 AM 60.8 °F 42.8 °F 52% 30.16 in 10.0 mi Calm Calm - N/A   Clear
7:16 AM 64.4 °F 42.8 °F 45% 30.16 in 10.0 mi SW 4.6 mph - N/A   Clear
7:36 AM 64.4 °F 42.8 °F 45% 30.16 in 10.0 mi SW 3.5 mph - N/A   Clear
7:56 AM 64.4 °F 42.8 °F 45% 30.16 in 10.0 mi SW 4.6 mph - N/A   Clear
8:16 AM 66.2 °F 42.8 °F 43% 30.16 in 10.0 mi WSW 3.5 mph - N/A   Clear
8:36 AM 68.0 °F 42.8 °F 40% 30.16 in 10.0 mi SW 3.5 mph - N/A   Clear
8:56 AM 69.8 °F 42.8 °F 38% 30.16 in 10.0 mi WSW 3.5 mph - N/A   Clear
9:16 AM 71.6 °F 42.8 °F 35% 30.16 in 10.0 mi West 3.5 mph - N/A   Clear
9:36 AM 73.4 °F 42.8 °F 33% 30.16 in 10.0 mi SW 4.6 mph - N/A   Clear
9:56 AM 73.4 °F 44.6 °F 36% 30.16 in 10.0 mi WSW 4.6 mph - N/A   Clear
10:16 AM 73.4 °F 44.6 °F 36% 30.16 in 10.0 mi West 4.6 mph - N/A   Clear
10:36 AM 75.2 °F 42.8 °F 31% 30.16 in 10.0 mi West 5.8 mph - N/A   Clear
10:56 AM 75.2 °F 44.6 °F 34% 30.16 in 10.0 mi West 8.1 mph - N/A   Scattered Clouds
11:16 AM 75.2 °F 44.6 °F 34% 30.17 in 10.0 mi West 6.9 mph - N/A   Mostly Cloudy
11:36 AM 75.2 °F 44.6 °F 34% 30.17 in 10.0 mi West 4.6 mph - N/A   Partly Cloudy
11:56 AM 75.2 °F 44.6 °F 34% 30.17 in 10.0 mi West 4.6 mph - N/A   Mostly Cloudy
12:16 PM 75.2 °F 44.6 °F 34% 30.17 in 10.0 mi West 5.8 mph - N/A   Mostly Cloudy
12:36 PM 75.2 °F 44.6 °F 34% 30.17 in 10.0 mi West 6.9 mph - N/A   Mostly Cloudy
12:56 PM 77.0 °F 44.6 °F 32% 30.17 in 10.0 mi West 9.2 mph 16.1 mph N/A   Mostly Cloudy
1:16 PM 75.2 °F 42.8 °F 31% 30.16 in 10.0 mi West 6.9 mph - N/A   Mostly Cloudy
1:36 PM 75.2 °F 44.6 °F 34% 30.16 in 10.0 mi West 8.1 mph - N/A   Mostly Cloudy
1:56 PM 75.2 °F 46.4 °F 36% 30.16 in 10.0 mi WNW 8.1 mph - N/A   Mostly Cloudy
2:16 PM 75.2 °F 46.4 °F 36% 30.16 in 10.0 mi West 6.9 mph - N/A   Mostly Cloudy
2:36 PM 77.0 °F 46.4 °F 34% 30.16 in 10.0 mi West 8.1 mph - N/A   Mostly Cloudy
2:56 PM 77.0 °F 46.4 °F 34% 30.16 in 10.0 mi WNW 9.2 mph - N/A   Mostly Cloudy
3:16 PM 78.8 °F 46.4 °F 32% 30.15 in 10.0 mi WNW 10.4 mph - N/A   Scattered Clouds
3:36 PM 80.6 °F 46.4 °F 30% 30.15 in 10.0 mi WNW 15.0 mph 20.7 mph N/A   Scattered Clouds
3:56 PM 80.6 °F 46.4 °F 30% 30.15 in 10.0 mi West 10.4 mph 16.1 mph N/A   Partly Cloudy
4:16 PM 78.8 °F 46.4 °F 32% 30.15 in 10.0 mi West 10.4 mph 19.6 mph N/A   Mostly Cloudy
4:36 PM 78.8 °F 46.4 °F 32% 30.14 in 10.0 mi West 10.4 mph 17.3 mph N/A   Overcast
4:56 PM 78.8 °F 46.4 °F 32% 30.14 in 10.0 mi WNW 9.2 mph 17.3 mph N/A   Overcast
5:16 PM 78.8 °F 46.4 °F 32% 30.14 in 10.0 mi West 10.4 mph - N/A   Overcast
5:36 PM 78.8 °F 46.4 °F 32% 30.14 in 10.0 mi West 8.1 mph - N/A   Overcast
5:56 PM 78.8 °F 44.6 °F 30% 30.13 in 10.0 mi West 13.8 mph 17.3 mph N/A   Overcast
6:16 PM 77.0 °F 44.6 °F 32% 30.14 in 10.0 mi West 9.2 mph - N/A   Overcast
6:36 PM 78.8 °F 44.6 °F 30% 30.13 in 10.0 mi West 6.9 mph - N/A   Overcast
6:56 PM 77.0 °F 44.6 °F 32% 30.13 in 10.0 mi West 8.1 mph - N/A   Mostly Cloudy
7:16 PM 77.0 °F 44.6 °F 32% 30.13 in 10.0 mi West 8.1 mph - N/A   Overcast
7:36 PM 77.0 °F 44.6 °F 32% 30.13 in 10.0 mi West 9.2 mph - N/A   Overcast
7:56 PM 77.0 °F 46.4 °F 34% 30.13 in 10.0 mi West 5.8 mph - N/A   Overcast
8:16 PM 75.2 °F 46.4 °F 36% 30.13 in 10.0 mi West 6.9 mph - N/A   Overcast
8:36 PM 75.2 °F 46.4 °F 36% 30.12 in 10.0 mi West 5.8 mph - N/A   Overcast
8:56 PM 75.2 °F 46.4 °F 36% 30.12 in 10.0 mi West 3.5 mph - N/A   Overcast
9:16 PM 75.2 °F 46.4 °F 36% 30.12 in 10.0 mi West 3.5 mph - N/A   Overcast
9:36 PM 73.4 °F 46.4 °F 38% 30.12 in 10.0 mi Calm Calm - N/A   Overcast
9:56 PM 73.4 °F 48.2 °F 41% 30.12 in 10.0 mi WSW 3.5 mph - N/A   Overcast
10:16 PM 73.4 °F 48.2 °F 41% 30.12 in 10.0 mi WSW 3.5 mph - N/A   Overcast
10:36 PM 73.4 °F 48.2 °F 41% 30.13 in 10.0 mi West 3.5 mph - N/A   Overcast
10:56 PM 71.6 °F 48.2 °F 43% 30.13 in 10.0 mi West 4.6 mph - N/A   Mostly Cloudy
11:16 PM 69.8 °F 51.8 °F 53% 30.13 in 10.0 mi Calm Calm - N/A   Partly Cloudy
11:36 PM 69.8 °F 48.2 °F 46% 30.13 in 10.0 mi Calm Calm - N/A   Partly Cloudy
11:56 PM 69.8 °F 48.2 °F 46% 30.14 in 10.0 mi Calm Calm - N/A   Scattered Clouds